Weather History for Waukesha, WI

Change the Weather History Date:

Monday, January 21, 2013

  Actual Average Record
Temperature  
Mean Temperature 2 °F -  
Max Temperature 8 °F 28 °F 52 °F (1964)
Min Temperature -4 °F 15 °F -20 °F (1984)
Degree Days  
Heating Degree Days 63    
Moisture  
Dew Point -6 °F    
Average Humidity 70    
Maximum Humidity 85    
Minimum Humidity 60    
Precipitation  
Precipitation 0.00 in - - ()
Sea Level Pressure  
Sea Level Pressure 30.16 in    
Wind  
Wind Speed 12 mph (WNW)    
Max Wind Speed 23 mph    
Max Gust Speed 34 mph    
Visibility 9 miles    
Events Snow    
Averages and records for this station are not official NWS values.
T = Trace of Precipitation, MM = Missing Value Source: NWS Daily Summary

Daily Weather History Graph

Daily Weather History Graph

Search for Another Location

Airport:

Trip Planner

Search our weather history database for the weather conditions in past years. The results will help you decide how hot, cold, wet, or windy it might be!

Date:

Astronomy

Jan. 21, 2013 Rise Set
Actual Time 7:17 AM CST 4:51 PM CST
Civil Twilight 6:46 AM CST 5:22 PM CST
Nautical Twilight 6:12 AM CST 5:57 PM CST
Astronomical Twilight 5:38 AM CST 6:30 PM CST
Moon 12:30 PM CST (1/21) 2:46 AM CST (1/21)
Length of Visible Light 10h 35m
Length of Day
9h 33m
Waxing Gibbous, 75% of the Moon is Illuminated
Jan 21
Waxing Gibbous
Jan 26
Full
Feb 3
Last Quarter
Feb 10
New
Feb 17
First Quarter

Hourly Weather History & Observations

Time (CST) Temp. Windchill Dew Point Humidity Pressure Visibility Wind Dir Wind Speed Gust Speed Precip Events Conditions
12:15 AM 8.6 °F -3.7 °F -0.4 °F 67% 30.14 in 10.0 mi West 8.1 mph - N/A   Overcast
12:35 AM 8.6 °F -3.7 °F -0.4 °F 67% 30.14 in 10.0 mi West 8.1 mph - N/A   Overcast
12:55 AM 8.6 °F -6.3 °F -0.4 °F 67% 30.13 in 10.0 mi WNW 11.5 mph - N/A   Overcast
1:15 AM 8.6 °F -5.5 °F -0.4 °F 67% 30.13 in 10.0 mi WNW 10.4 mph - N/A   Overcast
1:35 AM 8.6 °F -4.7 °F -0.4 °F 67% 30.13 in 10.0 mi WNW 9.2 mph - N/A   Overcast
1:55 AM 8.6 °F -2.6 °F -0.4 °F 67% 30.12 in 10.0 mi NW 6.9 mph - N/A   Overcast
2:15 AM 8.6 °F -4.7 °F -0.4 °F 67% 30.12 in 10.0 mi WNW 9.2 mph - N/A   Overcast
2:35 AM 8.6 °F -3.7 °F 1.4 °F 73% 30.11 in 10.0 mi WNW 8.1 mph - N/A   Overcast
2:55 AM 8.6 °F -2.6 °F 3.2 °F 79% 30.10 in 5.0 mi WNW 6.9 mph - N/A   Haze
3:15 AM 8.6 °F -1.3 °F 3.2 °F 79% 30.10 in 5.0 mi WNW 5.8 mph - N/A   Overcast
3:35 AM 8.6 °F -5.5 °F 5.0 °F 85% 30.10 in 3.0 mi West 10.4 mph - N/A Snow Light Snow
3:55 AM 8.6 °F -6.3 °F 1.4 °F 73% 30.09 in 10.0 mi West 11.5 mph 19.6 mph N/A   Mostly Cloudy
4:15 AM 6.8 °F -11.8 °F 1.4 °F 79% 30.08 in 10.0 mi West 17.3 mph 21.9 mph N/A   Overcast
4:35 AM 6.8 °F -11.3 °F -0.4 °F 72% 30.08 in 10.0 mi West 16.1 mph 23.0 mph N/A   Mostly Cloudy
5:45 AM 3.2 °F -11.3 °F -2.2 °F 78% 30.09 in 10.0 mi WNW 9.2 mph - N/A   Scattered Clouds
7:45 AM 1.4 °F -12.5 °F -2.2 °F 85% 30.10 in 4.0 mi WNW 8.1 mph - N/A Snow Light Snow
8:10 AM 1.4 °F -13.5 °F -2.2 °F 85% 30.11 in 2.0 mi NW 9.2 mph - N/A Snow Light Snow
8:45 AM -0.4 °F -17.6 °F -5.8 °F 78% 30.13 in 7.0 mi WNW 11.5 mph 23.0 mph N/A Snow Light Snow
9:45 AM 1.4 °F -19.4 °F -9.4 °F 61% 30.15 in 10.0 mi WNW 18.4 mph 29.9 mph N/A   Scattered Clouds
10:45 AM -0.4 °F -21.7 °F -9.4 °F 66% 30.15 in 10.0 mi WNW 18.4 mph 32.2 mph N/A   Scattered Clouds
11:45 AM 1.4 °F -18.8 °F -9.4 °F 61% 30.14 in 10.0 mi West 17.3 mph 28.8 mph N/A   Scattered Clouds
12:45 PM 1.4 °F -21.4 °F -9.4 °F 61% 30.13 in 10.0 mi WNW 23.0 mph 34.5 mph N/A   Scattered Clouds
1:45 PM 1.4 °F -20.5 °F -9.4 °F 61% 30.13 in 10.0 mi WNW 20.7 mph 34.5 mph N/A   Mostly Cloudy
2:45 PM 1.4 °F -18.8 °F -9.4 °F 61% 30.14 in 10.0 mi West 17.3 mph 32.2 mph N/A   Mostly Cloudy
3:45 PM 1.4 °F -19.9 °F -7.6 °F 66% 30.14 in 10.0 mi WNW 19.6 mph 24.2 mph N/A   Mostly Cloudy
5:46 PM -0.4 °F -19.9 °F -11.2 °F 60% 30.17 in 10.0 mi WNW 15.0 mph 21.9 mph N/A   Clear
6:45 PM -0.4 °F -19.2 °F -9.4 °F 66% 30.18 in 10.0 mi West 13.8 mph 18.4 mph N/A   Scattered Clouds
7:45 PM -2.2 °F -22.2 °F -11.2 °F 66% 30.19 in 10.0 mi WNW 15.0 mph 19.6 mph N/A   Clear
8:15 PM -0.4 °F -19.2 °F -9.4 °F 66% 30.20 in 10.0 mi WNW 13.8 mph 17.3 mph N/A   Clear
8:35 PM -2.2 °F -18.9 °F -9.4 °F 71% 30.20 in 10.0 mi NW 10.4 mph - N/A   Clear
8:45 PM -2.2 °F -18.9 °F -11.2 °F 66% 30.20 in 10.0 mi NW 10.4 mph - N/A   Clear
8:55 PM -2.2 °F -18.9 °F -9.4 °F 71% 30.21 in 10.0 mi NW 10.4 mph - N/A   Clear
9:15 PM -2.2 °F -21.5 °F -9.4 °F 71% 30.21 in 10.0 mi NW 13.8 mph - N/A   Clear
9:35 PM -2.2 °F -22.9 °F -11.2 °F 66% 30.22 in 10.0 mi NW 16.1 mph - N/A   Scattered Clouds
9:55 PM -4.0 °F -23.0 °F -11.2 °F 71% 30.23 in 10.0 mi NW 12.7 mph - N/A   Scattered Clouds
10:15 PM -4.0 °F -25.8 °F -11.2 °F 71% 30.23 in 10.0 mi NW 17.3 mph 21.9 mph N/A   Scattered Clouds
10:35 PM -4.0 °F -26.4 °F -13.0 °F 65% 30.23 in 10.0 mi WNW 18.4 mph 25.3 mph N/A   Scattered Clouds
10:55 PM -4.0 °F -25.8 °F -13.0 °F 65% 30.23 in 10.0 mi NW 17.3 mph 21.9 mph N/A   Scattered Clouds
11:15 PM -4.0 °F -25.8 °F -13.0 °F 65% 30.24 in 10.0 mi WNW 17.3 mph 20.7 mph N/A   Scattered Clouds
11:35 PM -4.0 °F -25.2 °F -13.0 °F 65% 30.24 in 7.0 mi WNW 16.1 mph 19.6 mph N/A   Mostly Cloudy
11:55 PM -4.0 °F -22.1 °F -9.4 °F 78% 30.24 in 3.0 mi WNW 11.5 mph - N/A   Haze